Time,TemperatureF,DewpointF,PressureIn,WindDirection,WindDirectionDegrees,WindSpeedMPH,WindSpeedGustMPH,Humidity,HourlyPrecipIn,Conditions,Clouds,dailyrainin,SolarRadiationWatts/m^2,SoftwareType,DateUTC
2013-04-14 00:00:00,37.8,32.5,30.00,NNW,342,0.0,0.0,81,0.00,,---,0.00,0.00,VWS V14.01,2013-04-14 04:00:00,
2013-04-14 00:05:00,37.6,32.6,30.00,NNW,342,0.0,1.0,82,0.00,,---,0.00,0.00,VWS V14.01,2013-04-14 04:05:00,
2013-04-14 00:10:00,37.4,32.4,30.00,NNW,342,0.0,1.0,82,0.00,,---,0.00,0.00,VWS V14.01,2013-04-14 04:10:00,
2013-04-14 00:15:00,37.2,32.2,30.01,NNW,342,0.0,1.0,82,0.00,,---,0.00,0.00,VWS V14.01,2013-04-14 04:15:00,
2013-04-14 00:20:00,37.0,32.0,30.01,NNW,342,1.0,1.0,82,0.00,,---,0.00,0.00,VWS V14.01,2013-04-14 04:20:00,
2013-04-14 00:25:00,37.0,32.3,30.00,NNW,342,0.0,1.0,83,0.00,,---,0.00,0.00,VWS V14.01,2013-04-14 04:25:00,
2013-04-14 00:30:00,36.9,32.2,30.01,NNW,342,0.0,0.0,83,0.00,,---,0.00,0.00,VWS V14.01,2013-04-14 04:30:00,
2013-04-14 00:35:00,36.8,32.1,30.01,NNW,342,0.0,1.0,83,0.00,,---,0.00,0.00,VWS V14.01,2013-04-14 04:35:00,
2013-04-14 00:40:00,36.7,32.0,30.01,NNW,342,1.0,1.0,83,0.00,,---,0.00,0.00,VWS V14.01,2013-04-14 04:40:00,
2013-04-14 00:45:00,36.6,32.2,30.01,NNW,342,0.0,1.0,84,0.00,,---,0.00,0.00,VWS V14.01,2013-04-14 04:45:00,
2013-04-14 00:50:00,36.4,32.0,30.01,NNW,342,0.0,1.0,84,0.00,,---,0.00,0.00,VWS V14.01,2013-04-14 04:50:00,
2013-04-14 00:56:00,36.3,31.9,30.01,NNW,342,1.0,1.0,84,0.00,,---,0.00,0.00,VWS V14.01,2013-04-14 04:56:00,
2013-04-14 01:00:00,36.2,31.8,30.01,NNW,342,0.0,0.0,84,0.00,,---,0.00,0.00,VWS V14.01,2013-04-14 05:00:00,
2013-04-14 01:06:00,36.0,31.6,30.01,NNW,342,0.0,0.0,84,0.00,,---,0.00,0.00,VWS V14.01,2013-04-14 05:06:00,
2013-04-14 01:11:00,35.9,31.5,30.01,NNW,342,0.0,0.0,84,0.00,,---,0.00,0.00,VWS V14.01,2013-04-14 05:11:00,
2013-04-14 01:16:00,35.7,31.4,30.01,NNW,342,0.0,0.0,84,0.00,,---,0.00,0.00,VWS V14.01,2013-04-14 05:16:00,
2013-04-14 01:21:00,35.6,31.2,30.01,NNW,342,0.0,0.0,84,0.00,,---,0.00,0.00,VWS V14.01,2013-04-14 05:21:00,
2013-04-14 01:26:00,35.3,31.0,30.01,NNW,342,0.0,0.0,84,0.00,,---,0.00,0.00,VWS V14.01,2013-04-14 05:26:00,
2013-04-14 01:30:00,35.2,31.1,30.02,NNW,342,0.0,0.0,85,0.00,,---,0.00,0.00,VWS V14.01,2013-04-14 05:30:00,
2013-04-14 01:31:00,35.1,31.0,30.01,NNW,342,0.0,0.0,85,0.00,,---,0.00,0.00,VWS V14.01,2013-04-14 05:31:00,
2013-04-14 01:36:00,35.0,31.0,30.01,NNW,342,0.0,0.0,85,0.00,,---,0.00,0.00,VWS V14.01,2013-04-14 05:36:00,
2013-04-14 01:41:00,34.7,31.0,30.01,NNW,342,0.0,1.0,86,0.00,,---,0.00,0.00,VWS V14.01,2013-04-14 05:41:00,
2013-04-14 01:46:00,34.6,31.1,30.01,NNW,342,0.0,1.0,87,0.00,,---,0.00,0.00,VWS V14.01,2013-04-14 05:46:00,
2013-04-14 01:51:00,34.5,31.0,30.01,NNW,342,0.0,1.0,87,0.00,,---,0.00,0.00,VWS V14.01,2013-04-14 05:51:00,
2013-04-14 01:57:00,34.4,30.9,30.01,NNW,342,0.0,1.0,87,0.00,,---,0.00,0.00,VWS V14.01,2013-04-14 05:57:00,
2013-04-14 02:00:00,34.3,31.1,30.01,NNW,343,0.0,2.0,88,0.00,,---,0.00,0.00,VWS V14.01,2013-04-14 06:00:00,
2013-04-14 02:02:00,34.3,31.1,30.00,NNW,344,0.0,1.0,88,0.00,,---,0.00,0.00,VWS V14.01,2013-04-14 06:02:00,
2013-04-14 02:07:00,34.2,31.0,30.00,NNW,344,0.0,1.0,88,0.00,,---,0.00,0.00,VWS V14.01,2013-04-14 06:07:00,
2013-04-14 02:12:00,34.2,31.0,30.00,NNW,344,0.0,1.0,88,0.00,,---,0.00,0.00,VWS V14.01,2013-04-14 06:12:00,
2013-04-14 02:17:00,34.1,30.9,30.01,NNW,344,0.0,1.0,88,0.00,,---,0.00,0.00,VWS V14.01,2013-04-14 06:17:00,
2013-04-14 02:22:00,34.0,31.1,30.00,NNW,344,0.0,1.0,89,0.00,,---,0.00,0.00,VWS V14.01,2013-04-14 06:22:00,
2013-04-14 02:27:00,33.9,31.0,30.00,NNW,344,0.0,1.0,89,0.00,,---,0.00,0.00,VWS V14.01,2013-04-14 06:27:00,
2013-04-14 02:30:00,33.9,31.0,30.00,NNW,344,0.0,1.0,89,0.00,,---,0.00,0.00,VWS V14.01,2013-04-14 06:30:00,
2013-04-14 02:32:00,33.8,30.9,30.00,NNW,344,0.0,0.0,89,0.00,,---,0.00,0.00,VWS V14.01,2013-04-14 06:32:00,
2013-04-14 02:37:00,33.7,30.8,30.00,NNW,344,1.0,1.0,89,0.00,,---,0.00,0.00,VWS V14.01,2013-04-14 06:37:00,
2013-04-14 02:42:00,33.7,30.8,29.99,NNE,22,3.0,3.0,89,0.00,,---,0.00,0.00,VWS V14.01,2013-04-14 06:42:00,
2013-04-14 02:47:00,33.8,32.8,30.00,NNE,22,0.0,3.0,96,0.00,,---,0.00,0.00,VWS V14.01,2013-04-14 06:47:00,
2013-04-14 02:52:00,33.8,31.2,30.00,NNE,22,0.0,3.0,90,0.00,,---,0.00,0.00,VWS V14.01,2013-04-14 06:52:00,
2013-04-14 02:57:00,33.9,31.3,30.00,NNE,22,0.0,3.0,90,0.00,,---,0.00,0.00,VWS V14.01,2013-04-14 06:57:00,
2013-04-14 03:00:00,33.9,31.3,30.00,NNE,22,0.0,3.0,90,0.00,,---,0.00,0.00,VWS V14.01,2013-04-14 07:00:00,
2013-04-14 03:02:00,34.0,31.4,30.00,NNE,22,0.0,0.0,90,0.00,,---,0.00,0.00,VWS V14.01,2013-04-14 07:02:00,
2013-04-14 03:07:00,34.1,31.5,30.00,NNE,22,0.0,1.0,90,0.00,,---,0.00,0.00,VWS V14.01,2013-04-14 07:07:00,
2013-04-14 03:12:00,34.2,31.6,30.00,NNE,22,0.0,1.0,90,0.00,,---,0.00,0.00,VWS V14.01,2013-04-14 07:12:00,
2013-04-14 03:17:00,34.1,31.5,30.00,NNE,22,0.0,1.0,90,0.00,,---,0.00,0.00,VWS V14.01,2013-04-14 07:17:00,
2013-04-14 03:22:00,34.1,31.5,30.01,NNE,22,0.0,1.0,90,0.00,,---,0.00,0.00,VWS V14.01,2013-04-14 07:22:00,
2013-04-14 03:27:00,33.9,31.3,30.00,NNE,22,0.0,1.0,90,0.00,,---,0.00,0.00,VWS V14.01,2013-04-14 07:27:00,
2013-04-14 03:30:00,33.8,31.2,30.00,NNE,22,1.0,1.0,90,0.00,,---,0.00,0.00,VWS V14.01,2013-04-14 07:30:00,
2013-04-14 03:32:00,33.7,31.1,30.01,NNE,22,0.0,2.0,90,0.00,,---,0.00,0.00,VWS V14.01,2013-04-14 07:32:00,
2013-04-14 03:37:00,33.4,30.8,30.01,NNE,22,0.0,2.0,90,0.00,,---,0.00,0.00,VWS V14.01,2013-04-14 07:37:00,
2013-04-14 03:42:00,33.2,30.6,30.01,NNE,22,0.0,2.0,90,0.00,,---,0.00,0.00,VWS V14.01,2013-04-14 07:42:00,
2013-04-14 03:47:00,33.0,30.4,30.01,NNE,22,0.0,2.0,90,0.00,,---,0.00,0.00,VWS V14.01,2013-04-14 07:47:00,
2013-04-14 03:52:00,32.9,30.3,30.01,NNE,22,0.0,2.0,90,0.00,,---,0.00,0.00,VWS V14.01,2013-04-14 07:52:00,
2013-04-14 03:57:00,32.7,30.1,30.01,NNE,22,0.0,2.0,90,0.00,,---,0.00,0.00,VWS V14.01,2013-04-14 07:57:00,
2013-04-14 04:00:00,32.6,30.0,30.01,NNE,22,0.0,2.0,90,0.00,,---,0.00,0.00,VWS V14.01,2013-04-14 08:00:00,
2013-04-14 04:02:00,32.6,30.3,30.00,NNE,22,0.0,0.0,91,0.00,,---,0.00,0.00,VWS V14.01,2013-04-14 08:02:00,
2013-04-14 04:07:00,32.5,30.2,30.00,NNE,22,0.0,1.0,91,0.00,,---,0.00,0.00,VWS V14.01,2013-04-14 08:07:00,
2013-04-14 04:12:00,32.6,30.3,30.01,NNE,22,0.0,1.0,91,0.00,,---,0.00,0.00,VWS V14.01,2013-04-14 08:12:00,
2013-04-14 04:17:00,32.5,30.2,30.01,NNE,22,0.0,1.0,91,0.00,,---,0.00,0.00,VWS V14.01,2013-04-14 08:17:00,
2013-04-14 04:22:00,32.6,30.3,30.02,NNE,22,0.0,1.0,91,0.00,,---,0.00,0.00,VWS V14.01,2013-04-14 08:22:00,
2013-04-14 04:28:00,32.6,30.5,30.02,NNE,22,1.0,1.0,92,0.00,,---,0.00,0.00,VWS V14.01,2013-04-14 08:28:00,
2013-04-14 04:30:00,32.6,30.5,30.02,NNE,22,0.0,1.0,92,0.00,,---,0.00,0.00,VWS V14.01,2013-04-14 08:30:00,
2013-04-14 04:33:00,32.6,30.5,30.02,NNE,22,0.0,0.0,92,0.00,,---,0.00,0.00,VWS V14.01,2013-04-14 08:33:00,
2013-04-14 04:38:00,32.6,30.5,30.02,NNE,22,0.0,0.0,92,0.00,,---,0.00,0.00,VWS V14.01,2013-04-14 08:38:00,
2013-04-14 04:43:00,32.5,30.4,30.02,NNE,22,0.0,0.0,92,0.00,,---,0.00,0.00,VWS V14.01,2013-04-14 08:43:00,
2013-04-14 04:48:00,32.5,30.4,30.02,NNE,22,0.0,0.0,92,0.00,,---,0.00,0.00,VWS V14.01,2013-04-14 08:48:00,
2013-04-14 04:53:00,32.6,30.5,30.02,NNE,22,0.0,0.0,92,0.00,,---,0.00,0.00,VWS V14.01,2013-04-14 08:53:00,
2013-04-14 04:58:00,32.7,30.6,30.02,NNE,22,0.0,0.0,92,0.00,,---,0.00,0.00,VWS V14.01,2013-04-14 08:58:00,
2013-04-14 05:00:00,32.8,30.7,30.02,NNE,22,0.0,0.0,92,0.00,,---,0.00,0.00,VWS V14.01,2013-04-14 09:00:00,
2013-04-14 05:03:00,33.0,31.2,30.02,NNE,22,0.0,0.0,93,0.00,,---,0.00,0.00,VWS V14.01,2013-04-14 09:03:00,
2013-04-14 05:08:00,33.2,31.4,30.02,NNE,22,0.0,0.0,93,0.00,,---,0.00,0.00,VWS V14.01,2013-04-14 09:08:00,
2013-04-14 05:13:00,33.4,31.6,30.02,NNE,22,0.0,0.0,93,0.00,,---,0.00,0.00,VWS V14.01,2013-04-14 09:13:00,
2013-04-14 05:18:00,33.6,31.8,30.02,NNE,22,0.0,0.0,93,0.00,,---,0.00,0.00,VWS V14.01,2013-04-14 09:18:00,
2013-04-14 05:23:00,33.6,31.8,30.02,NNE,22,0.0,0.0,93,0.00,,---,0.00,0.00,VWS V14.01,2013-04-14 09:23:00,
2013-04-14 05:28:00,33.7,31.9,30.03,NNE,22,0.0,0.0,93,0.00,,---,0.00,0.00,VWS V14.01,2013-04-14 09:28:00,
2013-04-14 05:30:00,33.7,31.9,30.03,NNE,22,0.0,0.0,93,0.00,,---,0.00,0.00,VWS V14.01,2013-04-14 09:30:00,
2013-04-14 05:33:00,33.7,31.9,30.04,NNE,22,0.0,1.0,93,0.00,,---,0.00,0.00,VWS V14.01,2013-04-14 09:33:00,
2013-04-14 05:38:00,33.8,32.0,30.03,NNE,22,0.0,1.0,93,0.00,,---,0.00,0.00,VWS V14.01,2013-04-14 09:38:00,
2013-04-14 05:43:00,33.7,31.9,30.04,NNE,22,0.0,1.0,93,0.00,,---,0.00,0.00,VWS V14.01,2013-04-14 09:43:00,
2013-04-14 05:48:00,33.7,31.9,30.04,NNE,22,0.0,1.0,93,0.00,,---,0.00,0.00,VWS V14.01,2013-04-14 09:48:00,
2013-04-14 05:53:00,33.7,31.9,30.04,NNE,22,0.0,1.0,93,0.00,,---,0.00,0.00,VWS V14.01,2013-04-14 09:53:00,
2013-04-14 05:58:00,33.6,31.8,30.04,NNE,22,0.0,1.0,93,0.00,,---,0.00,0.00,VWS V14.01,2013-04-14 09:58:00,
2013-04-14 06:00:00,33.6,31.5,30.04,NNE,22,0.0,1.0,92,0.00,,---,0.00,0.00,VWS V14.01,2013-04-14 10:00:00,
2013-04-14 06:03:00,33.5,31.4,30.04,NNE,22,0.0,0.0,92,0.00,,---,0.00,0.00,VWS V14.01,2013-04-14 10:03:00,
2013-04-14 06:08:00,33.4,31.3,30.04,NNE,22,0.0,0.0,92,0.00,,---,0.00,0.00,VWS V14.01,2013-04-14 10:08:00,
2013-04-14 06:13:00,33.3,31.2,30.04,NNE,22,0.0,0.0,92,0.00,,---,0.00,0.00,VWS V14.01,2013-04-14 10:13:00,
2013-04-14 06:18:00,33.3,31.2,30.04,NNE,22,0.0,0.0,92,0.00,,---,0.00,0.00,VWS V14.01,2013-04-14 10:18:00,
2013-04-14 06:23:00,33.2,31.4,30.04,NNE,22,0.0,0.0,93,0.00,,---,0.00,0.00,VWS V14.01,2013-04-14 10:23:00,
2013-04-14 06:28:00,33.2,31.4,30.04,NNE,22,0.0,0.0,93,0.00,,---,0.00,0.00,VWS V14.01,2013-04-14 10:28:00,
2013-04-14 06:30:00,33.2,31.4,30.04,NNE,22,0.0,0.0,93,0.00,,---,0.00,0.00,VWS V14.01,2013-04-14 10:30:00,
2013-04-14 06:33:00,33.1,31.0,30.04,NNE,22,0.0,0.0,92,0.00,,---,0.00,0.00,VWS V14.01,2013-04-14 10:33:00,
2013-04-14 06:38:00,33.0,30.9,30.05,NNE,22,0.0,0.0,92,0.00,,---,0.00,0.00,VWS V14.01,2013-04-14 10:38:00,
2013-04-14 06:43:00,32.9,30.8,30.05,NNE,22,0.0,0.0,92,0.00,,---,0.00,0.00,VWS V14.01,2013-04-14 10:43:00,
2013-04-14 06:48:00,32.8,30.7,30.05,NNE,22,0.0,0.0,92,0.00,,---,0.00,0.00,VWS V14.01,2013-04-14 10:48:00,
2013-04-14 06:53:00,32.8,30.7,30.05,NNE,22,0.0,0.0,92,0.00,,---,0.00,0.00,VWS V14.01,2013-04-14 10:53:00,
2013-04-14 06:58:00,32.7,30.6,30.05,NNE,22,0.0,0.0,92,0.00,,---,0.00,7.00,VWS V14.01,2013-04-14 10:58:00,
2013-04-14 07:00:00,32.7,30.6,30.05,NNE,22,0.0,0.0,92,0.00,,---,0.00,7.00,VWS V14.01,2013-04-14 11:00:00,
2013-04-14 07:03:00,32.6,30.5,30.05,NNE,22,0.0,0.0,92,0.00,,---,0.00,11.00,VWS V14.01,2013-04-14 11:03:00,
2013-04-14 07:08:00,32.6,30.5,30.05,NNE,22,0.0,1.0,92,0.00,,---,0.00,12.00,VWS V14.01,2013-04-14 11:08:00,
2013-04-14 07:13:00,32.5,30.4,30.04,NNE,22,0.0,1.0,92,0.00,,---,0.00,16.00,VWS V14.01,2013-04-14 11:13:00,
2013-04-14 07:18:00,32.6,30.8,30.04,NNE,22,0.0,1.0,93,0.00,,---,0.00,21.00,VWS V14.01,2013-04-14 11:18:00,
2013-04-14 07:23:00,32.7,30.9,30.04,NNE,22,0.0,1.0,93,0.00,,---,0.00,28.00,VWS V14.01,2013-04-14 11:23:00,
2013-04-14 07:28:00,32.8,31.0,30.04,NNE,22,0.0,1.0,93,0.00,,---,0.00,44.00,VWS V14.01,2013-04-14 11:28:00,
2013-04-14 07:30:00,32.9,31.1,30.04,NNE,22,0.0,1.0,93,0.00,,---,0.00,47.00,VWS V14.01,2013-04-14 11:30:00,
2013-04-14 07:33:00,33.1,31.3,30.04,NNE,22,0.0,1.0,93,0.00,,---,0.00,56.00,VWS V14.01,2013-04-14 11:33:00,
2013-04-14 07:39:00,33.4,31.6,30.05,NNE,22,0.0,1.0,93,0.00,,---,0.00,72.00,VWS V14.01,2013-04-14 11:39:00,
2013-04-14 07:43:00,33.7,31.9,30.06,NNE,22,1.0,1.0,93,0.00,,---,0.00,83.00,VWS V14.01,2013-04-14 11:43:00,
2013-04-14 07:48:00,33.7,31.9,30.06,NNE,22,2.0,2.0,93,0.00,,---,0.00,77.00,VWS V14.01,2013-04-14 11:48:00,
2013-04-14 07:54:00,33.9,32.1,30.07,NNE,22,0.0,2.0,93,0.00,,---,0.00,77.00,VWS V14.01,2013-04-14 11:54:00,
2013-04-14 07:59:00,34.2,32.4,30.06,NNE,22,0.0,2.0,93,0.00,,---,0.00,53.00,VWS V14.01,2013-04-14 11:59:00,
2013-04-14 08:00:00,34.2,32.4,30.07,NNE,22,0.0,2.0,93,0.00,,---,0.00,58.00,VWS V14.01,2013-04-14 12:00:00,
2013-04-14 08:04:00,34.4,32.6,30.07,NNE,22,2.0,2.0,93,0.00,,---,0.00,77.00,VWS V14.01,2013-04-14 12:04:00,
2013-04-14 08:09:00,35.0,33.2,30.07,South,169,5.0,8.0,93,0.00,,---,0.00,69.00,VWS V14.01,2013-04-14 12:09:00,
2013-04-14 08:14:00,35.7,33.9,30.07,SSE,157,4.0,8.0,93,0.00,,---,0.00,97.00,VWS V14.01,2013-04-14 12:14:00,
2013-04-14 08:19:00,36.4,34.6,30.07,South,174,1.0,8.0,93,0.00,,---,0.00,90.00,VWS V14.01,2013-04-14 12:19:00,
2013-04-14 08:24:00,36.9,34.5,30.06,SSE,155,7.0,8.0,91,0.00,,---,0.00,97.00,VWS V14.01,2013-04-14 12:24:00,
2013-04-14 08:29:00,37.4,34.7,30.06,SSE,161,5.0,10.0,90,0.00,,---,0.00,162.00,VWS V14.01,2013-04-14 12:29:00,
2013-04-14 08:30:00,37.5,34.6,30.06,SSE,165,6.0,10.0,89,0.00,,---,0.00,153.00,VWS V14.01,2013-04-14 12:30:00,
2013-04-14 08:34:00,37.8,34.9,30.07,South,171,9.0,10.0,89,0.00,,---,0.00,127.00,VWS V14.01,2013-04-14 12:34:00,
2013-04-14 08:39:00,38.2,34.7,30.08,SE,138,5.0,11.0,87,0.00,,---,0.00,113.00,VWS V14.01,2013-04-14 12:39:00,
2013-04-14 08:44:00,38.4,34.6,30.09,SSE,157,2.0,11.0,86,0.00,,---,0.00,81.00,VWS V14.01,2013-04-14 12:44:00,
2013-04-14 08:49:00,38.6,34.8,30.08,SSE,163,4.0,11.0,86,0.00,,---,0.00,81.00,VWS V14.01,2013-04-14 12:49:00,
2013-04-14 08:54:00,38.8,34.7,30.08,South,181,7.0,11.0,85,0.00,,---,0.00,74.00,VWS V14.01,2013-04-14 12:54:00,
2013-04-14 08:59:00,39.1,34.7,30.08,South,172,1.0,11.0,84,0.00,,---,0.00,86.00,VWS V14.01,2013-04-14 12:59:00,
2013-04-14 09:00:00,39.1,34.7,30.08,South,180,0.0,11.0,84,0.00,,---,0.00,88.00,VWS V14.01,2013-04-14 13:00:00,
2013-04-14 09:04:00,39.2,34.8,30.08,South,170,0.0,7.0,84,0.00,,---,0.00,77.00,VWS V14.01,2013-04-14 13:04:00,
2013-04-14 09:09:00,39.4,34.7,30.08,SSE,155,1.0,7.0,83,0.00,,---,0.00,70.00,VWS V14.01,2013-04-14 13:09:00,
2013-04-14 09:14:00,39.6,34.9,30.09,SSE,151,0.0,7.0,83,0.00,,---,0.00,72.00,VWS V14.01,2013-04-14 13:14:00,
2013-04-14 09:19:00,39.7,34.7,30.09,SSE,151,0.0,7.0,82,0.00,,---,0.00,63.00,VWS V14.01,2013-04-14 13:19:00,
2013-04-14 09:24:00,39.9,34.9,30.09,SSE,150,0.0,7.0,82,0.00,,---,0.00,90.00,VWS V14.01,2013-04-14 13:24:00,
2013-04-14 09:29:00,40.2,34.8,30.09,SSE,150,0.0,7.0,81,0.00,,---,0.00,125.00,VWS V14.01,2013-04-14 13:29:00,
2013-04-14 09:30:00,40.2,34.8,30.09,SSE,150,0.0,7.0,81,0.00,,---,0.00,128.00,VWS V14.01,2013-04-14 13:30:00,
2013-04-14 09:34:00,40.4,34.7,30.09,SSE,150,0.0,3.0,80,0.00,,---,0.00,118.00,VWS V14.01,2013-04-14 13:34:00,
2013-04-14 09:39:00,40.7,35.0,30.08,NE,39,0.0,3.0,80,0.00,,---,0.00,121.00,VWS V14.01,2013-04-14 13:39:00,
2013-04-14 09:44:00,40.8,35.1,30.08,NE,39,0.0,3.0,80,0.00,,---,0.00,102.00,VWS V14.01,2013-04-14 13:44:00,
2013-04-14 09:49:00,41.0,35.6,30.08,NE,40,0.0,3.0,81,0.00,,---,0.00,132.00,VWS V14.01,2013-04-14 13:49:00,
2013-04-14 09:54:00,41.3,35.9,30.07,NE,40,0.0,3.0,81,0.00,,---,0.00,169.00,VWS V14.01,2013-04-14 13:54:00,
2013-04-14 09:59:00,41.6,35.9,30.07,NE,40,0.0,3.0,80,0.00,,---,0.00,216.00,VWS V14.01,2013-04-14 13:59:00,
2013-04-14 10:00:00,41.6,35.9,30.07,NE,40,0.0,3.0,80,0.00,,---,0.00,237.00,VWS V14.01,2013-04-14 14:00:00,
2013-04-14 10:04:00,41.9,35.5,30.07,SE,132,1.0,4.0,78,0.00,,---,0.00,294.00,VWS V14.01,2013-04-14 14:04:00,
2013-04-14 10:09:00,42.5,35.8,30.06,SSE,158,0.0,4.0,77,0.00,,---,0.00,432.00,VWS V14.01,2013-04-14 14:09:00,
2013-04-14 10:14:00,43.2,36.2,30.05,SSE,155,2.0,5.0,76,0.00,,---,0.00,366.00,VWS V14.01,2013-04-14 14:14:00,
2013-04-14 10:19:00,43.8,36.1,30.05,ESE,111,4.0,5.0,74,0.00,,---,0.00,387.00,VWS V14.01,2013-04-14 14:19:00,
2013-04-14 10:24:00,44.7,36.6,30.04,ESE,115,2.0,6.0,73,0.00,,---,0.00,584.00,VWS V14.01,2013-04-14 14:24:00,
2013-04-14 10:30:00,45.4,36.6,30.03,East,84,2.0,6.0,71,0.00,,---,0.00,534.00,VWS V14.01,2013-04-14 14:30:00,
2013-04-14 10:35:00,46.2,36.6,30.03,ENE,74,3.0,5.0,69,0.00,,---,0.00,594.00,VWS V14.01,2013-04-14 14:35:00,
2013-04-14 10:40:00,46.8,36.8,30.03,SE,134,3.0,6.0,68,0.00,,---,0.00,635.00,VWS V14.01,2013-04-14 14:40:00,
2013-04-14 10:45:00,47.5,37.8,30.03,ESE,106,3.0,6.0,69,0.00,,---,0.00,621.00,VWS V14.01,2013-04-14 14:45:00,
2013-04-14 10:50:00,47.7,36.9,30.03,East,88,3.0,7.0,66,0.00,,---,0.00,624.00,VWS V14.01,2013-04-14 14:50:00,
2013-04-14 10:55:00,48.0,37.6,30.03,ENE,76,3.0,7.0,67,0.00,,---,0.00,636.00,VWS V14.01,2013-04-14 14:55:00,
2013-04-14 11:00:00,48.1,37.3,30.03,ENE,77,1.0,7.0,66,0.00,,---,0.00,661.00,VWS V14.01,2013-04-14 15:00:00,
2013-04-14 11:05:00,48.5,38.1,30.03,ENE,77,0.0,3.0,67,0.00,,---,0.00,649.00,VWS V14.01,2013-04-14 15:05:00,
2013-04-14 11:10:00,48.9,38.1,30.03,NE,44,3.0,8.0,66,0.00,,---,0.00,578.00,VWS V14.01,2013-04-14 15:10:00,
2013-04-14 11:15:00,49.0,37.4,30.03,East,96,1.0,9.0,64,0.00,,---,0.00,612.00,VWS V14.01,2013-04-14 15:15:00,
2013-04-14 11:20:00,49.2,37.6,30.03,East,86,0.0,9.0,64,0.00,,---,0.00,686.00,VWS V14.01,2013-04-14 15:20:00,
2013-04-14 11:25:00,49.6,38.3,30.03,ENE,71,4.0,9.0,65,0.00,,---,0.00,684.00,VWS V14.01,2013-04-14 15:25:00,
2013-04-14 11:30:00,50.1,38.0,30.03,NE,47,1.0,9.0,63,0.00,,---,0.00,654.00,VWS V14.01,2013-04-14 15:30:00,
2013-04-14 11:35:00,50.4,37.9,30.04,ENE,65,3.0,7.0,62,0.00,,---,0.00,742.00,VWS V14.01,2013-04-14 15:35:00,
2013-04-14 11:40:00,50.6,38.9,30.03,ENE,67,3.0,7.0,64,0.00,,---,0.00,719.00,VWS V14.01,2013-04-14 15:40:00,
2013-04-14 11:45:00,50.9,38.4,30.02,East,83,2.0,9.0,62,0.00,,---,0.00,740.00,VWS V14.01,2013-04-14 15:45:00,
2013-04-14 11:50:00,51.1,38.5,30.03,NE,53,5.0,9.0,62,0.00,,---,0.00,708.00,VWS V14.01,2013-04-14 15:50:00,
2013-04-14 11:55:00,51.5,39.3,30.03,ESE,117,2.0,9.0,63,0.00,,---,0.00,766.00,VWS V14.01,2013-04-14 15:55:00,
2013-04-14 12:00:00,51.8,38.8,30.02,ENE,73,3.0,9.0,61,0.00,,---,0.00,714.00,VWS V14.01,2013-04-14 16:00:00,
2013-04-14 12:05:00,52.1,39.5,30.02,SSE,153,2.0,6.0,62,0.00,,---,0.00,663.00,VWS V14.01,2013-04-14 16:05:00,
2013-04-14 12:10:00,52.6,39.5,30.02,ESE,105,3.0,7.0,61,0.00,,---,0.00,800.00,VWS V14.01,2013-04-14 16:10:00,
2013-04-14 12:15:00,52.8,39.7,30.01,ENE,73,5.0,8.0,61,0.00,,---,0.00,751.00,VWS V14.01,2013-04-14 16:15:00,
2013-04-14 12:20:00,53.2,40.1,30.01,SSE,157,1.0,8.0,61,0.00,,---,0.00,712.00,VWS V14.01,2013-04-14 16:20:00,
2013-04-14 12:25:00,53.6,40.1,30.01,ESE,107,1.0,8.0,60,0.00,,---,0.00,765.00,VWS V14.01,2013-04-14 16:25:00,
2013-04-14 12:30:00,54.0,40.0,30.00,South,171,3.0,8.0,59,0.00,,---,0.00,773.00,VWS V14.01,2013-04-14 16:30:00,
2013-04-14 12:35:00,54.3,40.3,30.00,South,182,6.0,7.0,59,0.00,,---,0.00,733.00,VWS V14.01,2013-04-14 16:35:00,
2013-04-14 12:40:00,54.5,40.0,30.00,ESE,121,0.0,13.0,58,0.00,,---,0.00,759.00,VWS V14.01,2013-04-14 16:40:00,
2013-04-14 12:45:00,54.7,40.7,30.00,SSE,154,2.0,13.0,59,0.00,,---,0.00,738.00,VWS V14.01,2013-04-14 16:45:00,
2013-04-14 12:50:00,55.0,41.0,30.00,East,95,0.0,13.0,59,0.00,,---,0.00,761.00,VWS V14.01,2013-04-14 16:50:00,
2013-04-14 12:55:00,55.6,42.0,29.99,SE,127,3.0,13.0,60,0.00,,---,0.00,819.00,VWS V14.01,2013-04-14 16:55:00,
2013-04-14 13:00:00,56.0,40.5,29.99,ESE,119,2.0,13.0,56,0.00,,---,0.00,752.00,VWS V14.01,2013-04-14 17:00:00,
2013-04-14 13:05:00,56.2,40.7,30.00,ENE,71,1.0,7.0,56,0.00,,---,0.00,779.00,VWS V14.01,2013-04-14 17:05:00,
2013-04-14 13:10:00,56.3,41.3,29.99,East,100,0.0,7.0,57,0.00,,---,0.00,889.00,VWS V14.01,2013-04-14 17:10:00,
2013-04-14 13:15:00,56.5,41.0,29.98,SE,130,6.0,7.0,56,0.00,,---,0.00,889.00,VWS V14.01,2013-04-14 17:15:00,
2013-04-14 13:20:00,56.7,40.3,29.98,East,80,1.0,9.0,54,0.00,,---,0.00,798.00,VWS V14.01,2013-04-14 17:20:00,
2013-04-14 13:25:00,56.8,40.3,29.98,East,84,5.0,13.0,54,0.00,,---,0.00,700.00,VWS V14.01,2013-04-14 17:25:00,
2013-04-14 13:30:00,56.8,40.8,29.97,ENE,69,6.0,6.0,55,0.00,,---,0.00,786.00,VWS V14.01,2013-04-14 17:30:00,
2013-04-14 13:35:00,57.1,40.6,29.97,East,93,3.0,11.0,54,0.00,,---,0.00,705.00,VWS V14.01,2013-04-14 17:35:00,
2013-04-14 13:40:00,57.3,39.8,29.97,ENE,57,1.0,11.0,52,0.00,,---,0.00,654.00,VWS V14.01,2013-04-14 17:40:00,
2013-04-14 13:45:00,57.5,40.0,29.97,East,86,6.0,11.0,52,0.00,,---,0.00,680.00,VWS V14.01,2013-04-14 17:45:00,
2013-04-14 13:50:00,57.4,39.4,29.97,East,97,4.0,11.0,51,0.00,,---,0.00,592.00,VWS V14.01,2013-04-14 17:50:00,
2013-04-14 13:55:00,57.5,40.0,29.97,NE,51,3.0,11.0,52,0.00,,---,0.00,650.00,VWS V14.01,2013-04-14 17:55:00,
2013-04-14 14:00:00,57.8,40.8,29.97,ENE,69,1.0,2.0,53,0.00,,---,0.00,585.00,VWS V14.01,2013-04-14 18:00:00,
2013-04-14 14:05:00,58.4,40.4,29.97,East,91,6.0,10.0,51,0.00,,---,0.00,826.00,VWS V14.01,2013-04-14 18:05:00,
2013-04-14 14:10:00,58.4,40.4,29.97,East,101,1.0,10.0,51,0.00,,---,0.00,591.00,VWS V14.01,2013-04-14 18:10:00,
2013-04-14 14:15:00,58.8,41.7,29.97,ESE,111,3.0,10.0,53,0.00,,---,0.00,689.00,VWS V14.01,2013-04-14 18:15:00,
2013-04-14 14:20:00,59.2,41.1,29.97,ESE,113,0.0,10.0,51,0.00,,---,0.00,893.00,VWS V14.01,2013-04-14 18:20:00,
2013-04-14 14:25:00,59.7,41.0,29.97,East,88,6.0,10.0,50,0.00,,---,0.00,650.00,VWS V14.01,2013-04-14 18:25:00,
2013-04-14 14:30:00,59.5,41.4,29.97,East,94,2.0,4.0,51,0.00,,---,0.00,766.00,VWS V14.01,2013-04-14 18:30:00,
2013-04-14 14:35:00,59.8,41.7,29.97,East,101,4.0,9.0,51,0.00,,---,0.00,779.00,VWS V14.01,2013-04-14 18:35:00,
2013-04-14 14:40:00,59.8,41.7,29.97,ENE,77,0.0,9.0,51,0.00,,---,0.00,708.00,VWS V14.01,2013-04-14 18:40:00,
2013-04-14 14:45:00,59.9,41.2,29.97,East,98,1.0,10.0,50,0.00,,---,0.00,722.00,VWS V14.01,2013-04-14 18:45:00,
2013-04-14 14:50:00,60.4,41.2,29.96,East,81,6.0,10.0,49,0.00,,---,0.00,756.00,VWS V14.01,2013-04-14 18:50:00,
2013-04-14 14:55:00,60.6,41.4,29.96,East,97,3.0,10.0,49,0.00,,---,0.00,647.00,VWS V14.01,2013-04-14 18:55:00,
2013-04-14 15:00:00,60.8,41.5,29.96,South,176,2.0,10.0,49,0.00,,---,0.00,624.00,VWS V14.01,2013-04-14 19:00:00,
2013-04-14 15:01:00,60.8,41.5,29.95,SSE,150,2.0,3.0,49,0.00,,---,0.00,708.00,VWS V14.01,2013-04-14 19:01:00,
2013-04-14 15:06:00,61.0,40.7,29.95,NE,55,2.0,8.0,47,0.00,,---,0.00,795.00,VWS V14.01,2013-04-14 19:06:00,
2013-04-14 15:11:00,61.3,42.0,29.95,ESE,103,3.0,8.0,49,0.00,,---,0.00,561.00,VWS V14.01,2013-04-14 19:11:00,
2013-04-14 15:16:00,61.5,41.7,29.95,ENE,74,4.0,8.0,48,0.00,,---,0.00,712.00,VWS V14.01,2013-04-14 19:16:00,
2013-04-14 15:21:00,61.8,43.0,29.94,SE,127,4.0,12.0,50,0.00,,---,0.00,740.00,VWS V14.01,2013-04-14 19:21:00,
2013-04-14 15:26:00,62.3,42.9,29.94,SSE,167,2.0,12.0,49,0.00,,---,0.00,738.00,VWS V14.01,2013-04-14 19:26:00,
2013-04-14 15:30:00,62.7,42.2,29.94,ESE,121,1.0,12.0,47,0.00,,---,0.00,802.00,VWS V14.01,2013-04-14 19:30:00,
2013-04-14 15:31:00,62.8,42.8,29.94,ESE,112,3.0,5.0,48,0.00,,---,0.00,803.00,VWS V14.01,2013-04-14 19:31:00,
2013-04-14 15:36:00,63.2,41.0,29.93,SE,141,1.0,10.0,44,0.00,,---,0.00,742.00,VWS V14.01,2013-04-14 19:36:00,
2013-04-14 15:42:00,63.4,41.7,29.93,South,171,2.0,11.0,45,0.00,,---,0.00,737.00,VWS V14.01,2013-04-14 19:42:00,
2013-04-14 15:47:00,63.6,41.9,29.93,SSE,150,3.0,11.0,45,0.00,,---,0.00,722.00,VWS V14.01,2013-04-14 19:47:00,
2013-04-14 15:52:00,63.9,42.2,29.93,SSE,149,4.0,11.0,45,0.00,,---,0.00,673.00,VWS V14.01,2013-04-14 19:52:00,
2013-04-14 15:57:00,64.0,42.8,29.92,SSE,163,4.0,11.0,46,0.00,,---,0.00,729.00,VWS V14.01,2013-04-14 19:57:00,
2013-04-14 16:00:00,64.2,41.8,29.92,ENE,74,5.0,11.0,44,0.00,,---,0.00,705.00,VWS V14.01,2013-04-14 20:00:00,
2013-04-14 16:02:00,64.3,41.9,29.92,ENE,71,5.0,7.0,44,0.00,,---,0.00,705.00,VWS V14.01,2013-04-14 20:02:00,
2013-04-14 16:07:00,64.2,41.3,29.91,East,86,6.0,13.0,43,0.00,,---,0.00,701.00,VWS V14.01,2013-04-14 20:07:00,
2013-04-14 16:12:00,64.2,41.8,29.91,East,99,3.0,13.0,44,0.00,,---,0.00,650.00,VWS V14.01,2013-04-14 20:12:00,
2013-04-14 16:17:00,64.5,42.1,29.91,ESE,107,5.0,13.0,44,0.00,,---,0.00,564.00,VWS V14.01,2013-04-14 20:17:00,
2013-04-14 16:22:00,64.6,41.6,29.90,ESE,119,0.0,13.0,43,0.00,,---,0.00,612.00,VWS V14.01,2013-04-14 20:22:00,
2013-04-14 16:27:00,64.7,41.7,29.91,East,80,4.0,13.0,43,0.00,,---,0.00,587.00,VWS V14.01,2013-04-14 20:27:00,
2013-04-14 16:30:00,64.6,41.6,29.91,ENE,74,6.0,13.0,43,0.00,,---,0.00,555.00,VWS V14.01,2013-04-14 20:30:00,
2013-04-14 16:32:00,64.5,40.9,29.91,ENE,78,4.0,10.0,42,0.00,,---,0.00,534.00,VWS V14.01,2013-04-14 20:32:00,
2013-04-14 16:37:00,64.4,41.4,29.91,ENE,69,2.0,11.0,43,0.00,,---,0.00,580.00,VWS V14.01,2013-04-14 20:37:00,
2013-04-14 16:42:00,64.5,41.5,29.91,ENE,74,5.0,11.0,43,0.00,,---,0.00,504.00,VWS V14.01,2013-04-14 20:42:00,
2013-04-14 16:47:00,64.5,40.9,29.91,East,84,2.0,11.0,42,0.00,,---,0.00,490.00,VWS V14.01,2013-04-14 20:47:00,
2013-04-14 16:52:00,64.6,41.0,29.90,East,86,4.0,11.0,42,0.00,,---,0.00,478.00,VWS V14.01,2013-04-14 20:52:00,
2013-04-14 16:57:00,64.7,41.7,29.90,East,83,2.0,11.0,43,0.00,,---,0.00,436.00,VWS V14.01,2013-04-14 20:57:00,
2013-04-14 17:00:00,64.7,41.1,29.90,East,86,3.0,11.0,42,0.00,,---,0.00,373.00,VWS V14.01,2013-04-14 21:00:00,
2013-04-14 17:02:00,64.7,41.1,29.90,East,87,8.0,8.0,42,0.00,,---,0.00,408.00,VWS V14.01,2013-04-14 21:02:00,
2013-04-14 17:07:00,64.7,41.7,29.90,East,99,0.0,8.0,43,0.00,,---,0.00,376.00,VWS V14.01,2013-04-14 21:07:00,
2013-04-14 17:12:00,64.9,41.9,29.90,ENE,70,4.0,8.0,43,0.00,,---,0.00,332.00,VWS V14.01,2013-04-14 21:12:00,
2013-04-14 17:17:00,64.8,41.2,29.90,ENE,76,4.0,8.0,42,0.00,,---,0.00,360.00,VWS V14.01,2013-04-14 21:17:00,
2013-04-14 17:22:00,64.9,43.1,29.90,East,88,0.0,8.0,45,0.00,,---,0.00,323.00,VWS V14.01,2013-04-14 21:22:00,
2013-04-14 17:27:00,65.1,42.7,29.90,East,89,0.0,9.0,44,0.00,,---,0.00,288.00,VWS V14.01,2013-04-14 21:27:00,
2013-04-14 17:30:00,65.1,42.1,29.90,East,98,4.0,9.0,43,0.00,,---,0.00,341.00,VWS V14.01,2013-04-14 21:30:00,
2013-04-14 17:32:00,65.2,42.2,29.90,ENE,78,5.0,5.0,43,0.00,,---,0.00,320.00,VWS V14.01,2013-04-14 21:32:00,
2013-04-14 17:37:00,65.1,41.5,29.90,East,100,3.0,9.0,42,0.00,,---,0.00,327.00,VWS V14.01,2013-04-14 21:37:00,
2013-04-14 17:42:00,65.2,41.5,29.90,ENE,78,5.0,9.0,42,0.00,,---,0.00,290.00,VWS V14.01,2013-04-14 21:42:00,
2013-04-14 17:47:00,65.1,42.1,29.90,SE,132,2.0,9.0,43,0.00,,---,0.00,278.00,VWS V14.01,2013-04-14 21:47:00,
2013-04-14 17:52:00,65.1,42.7,29.90,ENE,78,3.0,9.0,44,0.00,,---,0.00,258.00,VWS V14.01,2013-04-14 21:52:00,
2013-04-14 17:57:00,65.1,42.1,29.90,East,90,1.0,9.0,43,0.00,,---,0.00,250.00,VWS V14.01,2013-04-14 21:57:00,
2013-04-14 18:00:00,65.1,42.7,29.90,East,92,2.0,9.0,44,0.00,,---,0.00,258.00,VWS V14.01,2013-04-14 22:00:00,
2013-04-14 18:02:00,65.1,41.5,29.90,East,84,4.0,5.0,42,0.00,,---,0.00,260.00,VWS V14.01,2013-04-14 22:02:00,
2013-04-14 18:08:00,65.1,42.7,29.90,East,86,1.0,6.0,44,0.00,,---,0.00,253.00,VWS V14.01,2013-04-14 22:08:00,
2013-04-14 18:13:00,65.1,42.7,29.91,East,88,2.0,6.0,44,0.00,,---,0.00,227.00,VWS V14.01,2013-04-14 22:13:00,
2013-04-14 18:18:00,65.1,42.7,29.91,East,82,1.0,6.0,44,0.00,,---,0.00,207.00,VWS V14.01,2013-04-14 22:18:00,
2013-04-14 18:23:00,65.2,42.8,29.91,East,95,0.0,6.0,44,0.00,,---,0.00,186.00,VWS V14.01,2013-04-14 22:23:00,
2013-04-14 18:28:00,65.2,42.2,29.91,SE,144,1.0,6.0,43,0.00,,---,0.00,176.00,VWS V14.01,2013-04-14 22:28:00,
2013-04-14 18:30:00,65.2,41.5,29.91,SSE,158,1.0,6.0,42,0.00,,---,0.00,167.00,VWS V14.01,2013-04-14 22:30:00,
2013-04-14 18:33:00,65.1,40.8,29.91,ESE,103,3.0,6.0,41,0.00,,---,0.00,156.00,VWS V14.01,2013-04-14 22:33:00,
2013-04-14 18:38:00,65.1,40.8,29.91,South,178,4.0,6.0,41,0.00,,---,0.00,151.00,VWS V14.01,2013-04-14 22:38:00,
2013-04-14 18:43:00,65.0,42.0,29.90,East,81,2.0,6.0,43,0.00,,---,0.00,146.00,VWS V14.01,2013-04-14 22:43:00,
2013-04-14 18:48:00,65.0,40.8,29.90,East,88,1.0,7.0,41,0.00,,---,0.00,127.00,VWS V14.01,2013-04-14 22:48:00,
2013-04-14 18:53:00,64.9,41.3,29.90,East,99,1.0,7.0,42,0.00,,---,0.00,113.00,VWS V14.01,2013-04-14 22:53:00,
2013-04-14 18:58:00,64.8,41.8,29.90,ENE,77,4.0,7.0,43,0.00,,---,0.00,102.00,VWS V14.01,2013-04-14 22:58:00,
2013-04-14 19:00:00,64.8,41.8,29.90,East,98,0.0,7.0,43,0.00,,---,0.00,95.00,VWS V14.01,2013-04-14 23:00:00,
2013-04-14 19:03:00,64.7,42.3,29.90,East,93,0.0,4.0,44,0.00,,---,0.00,88.00,VWS V14.01,2013-04-14 23:03:00,
2013-04-14 19:08:00,64.5,42.1,29.90,East,92,1.0,4.0,44,0.00,,---,0.00,76.00,VWS V14.01,2013-04-14 23:08:00,
2013-04-14 19:13:00,64.3,41.9,29.90,East,92,0.0,4.0,44,0.00,,---,0.00,65.00,VWS V14.01,2013-04-14 23:13:00,
2013-04-14 19:18:00,64.1,42.3,29.89,East,92,0.0,4.0,45,0.00,,---,0.00,56.00,VWS V14.01,2013-04-14 23:18:00,
2013-04-14 19:23:00,63.9,42.7,29.89,East,92,1.0,4.0,46,0.00,,---,0.00,46.00,VWS V14.01,2013-04-14 23:23:00,
2013-04-14 19:28:00,63.7,43.1,29.89,East,92,0.0,4.0,47,0.00,,---,0.00,37.00,VWS V14.01,2013-04-14 23:28:00,
2013-04-14 19:30:00,63.6,43.0,29.89,East,92,0.0,4.0,47,0.00,,---,0.00,33.00,VWS V14.01,2013-04-14 23:30:00,
2013-04-14 19:33:00,63.5,42.9,29.90,East,92,0.0,1.0,47,0.00,,---,0.00,26.00,VWS V14.01,2013-04-14 23:33:00,
2013-04-14 19:38:00,63.3,43.3,29.90,East,92,0.0,1.0,48,0.00,,---,0.00,19.00,VWS V14.01,2013-04-14 23:38:00,
2013-04-14 19:43:00,63.1,42.6,29.90,East,92,0.0,1.0,47,0.00,,---,0.00,16.00,VWS V14.01,2013-04-14 23:43:00,
2013-04-14 19:48:00,62.9,42.9,29.90,East,92,0.0,1.0,48,0.00,,---,0.00,11.00,VWS V14.01,2013-04-14 23:48:00,
2013-04-14 19:53:00,62.6,43.7,29.89,East,92,0.0,1.0,50,0.00,,---,0.00,7.00,VWS V14.01,2013-04-14 23:53:00,
2013-04-14 19:58:00,62.2,43.9,29.89,East,92,0.0,1.0,51,0.00,,---,0.00,0.00,VWS V14.01,2013-04-14 23:58:00,
2013-04-14 20:00:00,62.0,44.2,29.89,East,92,0.0,1.0,52,0.00,,---,0.00,0.00,VWS V14.01,2013-04-15 00:00:00,
2013-04-14 20:03:00,61.7,42.9,29.89,East,92,0.0,1.0,50,0.00,,---,0.00,0.00,VWS V14.01,2013-04-15 00:03:00,
2013-04-14 20:08:00,61.3,43.5,29.89,East,92,0.0,1.0,52,0.00,,---,0.00,0.00,VWS V14.01,2013-04-15 00:08:00,
2013-04-14 20:13:00,60.8,42.6,29.89,East,92,1.0,1.0,51,0.00,,---,0.00,0.00,VWS V14.01,2013-04-15 00:13:00,
2013-04-14 20:18:00,60.4,42.2,29.89,East,92,0.0,1.0,51,0.00,,---,0.00,0.00,VWS V14.01,2013-04-15 00:18:00,
2013-04-14 20:23:00,60.1,42.4,29.89,East,92,1.0,1.0,52,0.00,,---,0.00,0.00,VWS V14.01,2013-04-15 00:23:00,
2013-04-14 20:28:00,59.8,42.2,29.89,East,92,0.0,1.0,52,0.00,,---,0.00,0.00,VWS V14.01,2013-04-15 00:28:00,
2013-04-14 20:30:00,59.8,42.2,29.89,East,92,0.0,1.0,52,0.00,,---,0.00,0.00,VWS V14.01,2013-04-15 00:30:00,
2013-04-14 20:33:00,59.7,42.1,29.89,East,92,0.0,0.0,52,0.00,,---,0.00,0.00,VWS V14.01,2013-04-15 00:33:00,
2013-04-14 20:38:00,59.5,42.4,29.89,East,92,0.0,1.0,53,0.00,,---,0.00,0.00,VWS V14.01,2013-04-15 00:38:00,
2013-04-14 20:43:00,59.3,41.7,29.89,East,92,0.0,1.0,52,0.00,,---,0.00,0.00,VWS V14.01,2013-04-15 00:43:00,
2013-04-14 20:48:00,59.2,41.6,29.89,East,92,1.0,1.0,52,0.00,,---,0.00,0.00,VWS V14.01,2013-04-15 00:48:00,
2013-04-14 20:53:00,59.1,41.5,29.89,East,92,0.0,1.0,52,0.00,,---,0.00,0.00,VWS V14.01,2013-04-15 00:53:00,
2013-04-14 20:58:00,59.1,41.5,29.89,East,92,0.0,1.0,52,0.00,,---,0.00,0.00,VWS V14.01,2013-04-15 00:58:00,
2013-04-14 21:00:00,59.0,41.4,29.89,East,92,0.0,1.0,52,0.00,,---,0.00,0.00,VWS V14.01,2013-04-15 01:00:00,
2013-04-14 21:04:00,59.0,41.4,29.89,East,92,0.0,1.0,52,0.00,,---,0.00,0.00,VWS V14.01,2013-04-15 01:04:00,
2013-04-14 21:09:00,58.9,41.8,29.89,East,92,0.0,2.0,53,0.00,,---,0.00,0.00,VWS V14.01,2013-04-15 01:09:00,
2013-04-14 21:14:00,58.8,41.2,29.90,East,92,0.0,2.0,52,0.00,,---,0.00,0.00,VWS V14.01,2013-04-15 01:14:00,
2013-04-14 21:19:00,58.7,41.6,29.89,East,92,0.0,2.0,53,0.00,,---,0.00,0.00,VWS V14.01,2013-04-15 01:19:00,
2013-04-14 21:24:00,58.5,41.9,29.89,East,92,0.0,2.0,54,0.00,,---,0.00,0.00,VWS V14.01,2013-04-15 01:24:00,
2013-04-14 21:29:00,58.3,41.3,29.89,East,92,0.0,2.0,53,0.00,,---,0.00,0.00,VWS V14.01,2013-04-15 01:29:00,
2013-04-14 21:30:00,58.3,41.3,29.89,East,92,1.0,2.0,53,0.00,,---,0.00,0.00,VWS V14.01,2013-04-15 01:30:00,
2013-04-14 21:34:00,58.2,41.2,29.89,East,92,0.0,1.0,53,0.00,,---,0.00,0.00,VWS V14.01,2013-04-15 01:34:00,
2013-04-14 21:39:00,58.1,41.6,29.89,East,92,0.0,1.0,54,0.00,,---,0.00,0.00,VWS V14.01,2013-04-15 01:39:00,
2013-04-14 21:44:00,58.2,41.2,29.89,East,92,0.0,3.0,53,0.00,,---,0.00,0.00,VWS V14.01,2013-04-15 01:44:00,
2013-04-14 21:49:00,58.2,41.7,29.89,East,92,1.0,3.0,54,0.00,,---,0.00,0.00,VWS V14.01,2013-04-15 01:49:00,
2013-04-14 21:54:00,58.2,41.2,29.89,East,92,0.0,3.0,53,0.00,,---,0.00,0.00,VWS V14.01,2013-04-15 01:54:00,
2013-04-14 21:59:00,58.1,41.6,29.89,East,92,0.0,3.0,54,0.00,,---,0.00,0.00,VWS V14.01,2013-04-15 01:59:00,
2013-04-14 22:00:00,58.1,41.1,29.89,East,92,0.0,3.0,53,0.00,,---,0.00,0.00,VWS V14.01,2013-04-15 02:00:00,
2013-04-14 22:04:00,58.1,41.6,29.88,East,92,0.0,1.0,54,0.00,,---,0.00,0.00,VWS V14.01,2013-04-15 02:04:00,
2013-04-14 22:09:00,57.9,41.4,29.89,East,92,0.0,2.0,54,0.00,,---,0.00,0.00,VWS V14.01,2013-04-15 02:09:00,
2013-04-14 22:14:00,58.0,41.0,29.89,East,92,0.0,2.0,53,0.00,,---,0.00,0.00,VWS V14.01,2013-04-15 02:14:00,
2013-04-14 22:19:00,58.1,41.1,29.89,East,92,0.0,2.0,53,0.00,,---,0.00,0.00,VWS V14.01,2013-04-15 02:19:00,
2013-04-14 22:24:00,58.1,41.6,29.89,East,92,0.0,2.0,54,0.00,,---,0.00,0.00,VWS V14.01,2013-04-15 02:24:00,
2013-04-14 22:29:00,58.1,42.0,29.88,East,92,0.0,2.0,55,0.00,,---,0.00,0.00,VWS V14.01,2013-04-15 02:29:00,
2013-04-14 22:30:00,58.1,42.0,29.88,East,92,0.0,2.0,55,0.00,,---,0.00,0.00,VWS V14.01,2013-04-15 02:30:00,
2013-04-14 22:34:00,58.0,42.4,29.88,East,92,2.0,3.0,56,0.00,,---,0.00,0.00,VWS V14.01,2013-04-15 02:34:00,
2013-04-14 22:39:00,58.1,41.6,29.88,East,86,4.0,4.0,54,0.00,,---,0.00,0.00,VWS V14.01,2013-04-15 02:39:00,
2013-04-14 22:44:00,58.3,42.2,29.88,East,86,0.0,4.0,55,0.00,,---,0.00,0.00,VWS V14.01,2013-04-15 02:44:00,
2013-04-14 22:49:00,58.2,42.1,29.88,East,86,0.0,4.0,55,0.00,,---,0.00,0.00,VWS V14.01,2013-04-15 02:49:00,
2013-04-14 22:54:00,58.2,41.7,29.88,East,86,0.0,4.0,54,0.00,,---,0.00,0.00,VWS V14.01,2013-04-15 02:54:00,
2013-04-14 22:59:00,58.1,41.6,29.87,East,88,1.0,4.0,54,0.00,,---,0.00,0.00,VWS V14.01,2013-04-15 02:59:00,
2013-04-14 23:00:00,58.1,41.6,29.87,East,87,0.0,4.0,54,0.00,,---,0.00,0.00,VWS V14.01,2013-04-15 03:00:00,
2013-04-14 23:04:00,58.2,41.2,29.87,East,87,0.0,3.0,53,0.00,,---,0.00,0.00,VWS V14.01,2013-04-15 03:04:00,
2013-04-14 23:09:00,58.3,41.8,29.87,NE,52,0.0,4.0,54,0.00,,---,0.00,0.00,VWS V14.01,2013-04-15 03:09:00,
2013-04-14 23:14:00,58.3,41.8,29.87,ENE,60,0.0,4.0,54,0.00,,---,0.00,0.00,VWS V14.01,2013-04-15 03:14:00,
2013-04-14 23:19:00,58.4,41.8,29.87,ENE,61,0.0,4.0,54,0.00,,---,0.00,0.00,VWS V14.01,2013-04-15 03:19:00,
2013-04-14 23:24:00,58.4,41.3,29.87,ENE,71,2.0,4.0,53,0.00,,---,0.00,0.00,VWS V14.01,2013-04-15 03:24:00,
2013-04-14 23:29:00,58.5,41.5,29.87,ENE,78,0.0,4.0,53,0.00,,---,0.00,0.00,VWS V14.01,2013-04-15 03:29:00,
2013-04-14 23:30:00,58.5,41.5,29.87,ENE,78,1.0,4.0,53,0.00,,---,0.00,0.00,VWS V14.01,2013-04-15 03:30:00,
2013-04-14 23:34:00,58.5,41.5,29.87,ENE,78,0.0,1.0,53,0.00,,---,0.00,0.00,VWS V14.01,2013-04-15 03:34:00,
2013-04-14 23:39:00,58.5,41.0,29.87,ESE,107,2.0,2.0,52,0.00,,---,0.00,0.00,VWS V14.01,2013-04-15 03:39:00,
2013-04-14 23:45:00,58.7,41.1,29.87,ENE,73,3.0,6.0,52,0.00,,---,0.00,0.00,VWS V14.01,2013-04-15 03:45:00,
2013-04-14 23:50:00,59.0,40.9,29.87,East,82,3.0,9.0,51,0.00,,---,0.00,0.00,VWS V14.01,2013-04-15 03:50:00,
2013-04-14 23:55:00,59.3,41.2,29.86,East,85,3.0,9.0,51,0.00,,---,0.00,0.00,VWS V14.01,2013-04-15 03:55:00,